Flag for Ecuador Weather past 2 weeks in Quito, Ecuador

Now
59 °F

Broken clouds.


Feels Like: 59 °F
Forecast: 50 / 61 °F
Wind: 5 mph from South

Location: Latacunga Airport

Current Time: Mar 28, 2015 at 10:17:38 AM

Latest Report: Mar 28, 2015 at 10:00 AM


Visibility: N/A

Pressure: 30.54 "Hg

Humidity: 72%

Dew point: 50 °F

Location of QuitoLocation

Historic Weather in Quito — Graph

°F

Quito temperature yesterday

Maximum temperature yesterday: 64 °F (at 3:00 PM)
Minimum temperature yesterday: 50 °F (at 5:00 AM)
Average temperature yesterday: 57 °F

Past Weeks' High & Low Weather Summary

 TemperatureHumidityPressure
High70 °F (Mar 23, 1:00 PM)100% (Mar 14, 10:00 PM)30.54 "Hg (Mar 14, 10:00 PM)
Low45 °F (Mar 23, 7:00 AM)40% (Mar 23, 1:00 PM)30.24 "Hg (Mar 13, 4:00 PM)
Average56 °F85%30.42 "Hg
* Reported Mar 13 9:00 AM — Mar 28 9:00 AM, Quito, Weather by CustomWeather, © 2015

Note: Actual official high and low records may vary slightly from our data, if they occured in-between our weather recording intervals... More about our weather records

Advertising

Quito weather history for previous 24 hours

 ConditionsComfort  
Time TempWeatherWind HumidityBarometerVisibility
9:00 AM
Sat, Mar 28
55 °FBroken clouds.5 mph88%30.54 "HgN/A
8:00 AM54 °FBroken clouds.2 mph94%30.54 "Hg5 mi
7:00 AM52 °FBroken clouds.2 mph94%30.51 "Hg5 mi
6:00 AM50 °FPassing clouds.5 mph94%30.48 "Hg4 mi
3:00 AM48 °FPassing clouds.2 mph100%30.42 "HgN/A
2:00 AM50 °FPassing clouds.3 mph100%30.45 "HgN/A
1:00 AM50 °FPassing clouds.2 mph100%30.45 "HgN/A
12:00 AM52 °FPassing clouds.2 mph94%30.48 "HgN/A
11:00 PM
Fri, Mar 27
52 °FPassing clouds.3 mph94%30.48 "HgN/A
10:00 PM54 °FPassing clouds.2 mph94%30.48 "HgN/A
9:00 PM55 °FPassing clouds.3 mph88%30.45 "HgN/A
7:00 PM61 °FPassing clouds.12 mph72%30.42 "HgN/A
6:00 PM63 °FPartly sunny.17 mph68%30.36 "HgN/A
5:00 PM64 °FScattered clouds.9 mph64%30.36 "HgN/A
4:00 PM64 °FScattered clouds.14 mph64%30.36 "HgN/A
3:00 PM64 °FScattered clouds.14 mph64%30.36 "HgN/A
2:00 PM63 °FBroken clouds.21 mph68%30.42 "HgN/A
1:00 PM61 °FBroken clouds.16 mph68%30.42 "HgN/A
12:00 PM61 °FBroken clouds.9 mph72%30.48 "HgN/A
11:00 AM59 °FBroken clouds.6 mph77%30.48 "HgN/A
10:00 AM57 °FBroken clouds.6 mph82%30.51 "HgN/A
Weather by CustomWeather, © 2015

See weather overviewHow to use our weather pages